SIA953 WIII-WSSS

Flight info

Callsign SIA953
Flight time 1h 5m
Altitude 32000
Route DOLTA2D/25R DOLT2D DOLTA G579 REPOV REPO2A
Aircraft B77W/M-H/L

Departure

Time 2026-05-04 08:50
Airport Soekarno-Hatta International Airport (WIII)

Arrival

Time 2026-05-04 09:56
Airport Singapore Changi Airport (WSSS)
Time Latitude Longitude Altitude Speed Heading
2026-05-04 08:46 -6.11298 106.66904 36 ft 0 kts 336°
2026-05-04 08:46 -6.11279 106.66895 32 ft 12 kts 336°
2026-05-04 08:47 -6.11163 106.66848 43 ft 17 kts 346°
2026-05-04 08:47 -6.11106 106.66867 53 ft 11 kts 46°
2026-05-04 08:47 -6.11061 106.66943 43 ft 12 kts 52°
2026-05-04 08:47 -6.11037 106.66963 43 ft 0 kts 33°
2026-05-04 08:48 -6.11010 106.66970 43 ft 11 kts
2026-05-04 08:48 -6.10964 106.66949 41 ft 8 kts 310°
2026-05-04 08:48 -6.10934 106.66846 43 ft 22 kts 271°
2026-05-04 08:49 -6.10971 106.66715 43 ft 38 kts 249°
2026-05-04 08:50 -6.13037 106.59513 1423 ft 232 kts 307°
2026-05-04 08:50 -6.12147 106.58121 1616 ft 240 kts 293°
2026-05-04 08:51 -6.11512 106.56551 1679 ft 241 kts 297°
2026-05-04 08:51 -6.10862 106.55009 1802 ft 237 kts 295°
2026-05-04 08:51 -6.10207 106.53467 2216 ft 243 kts 296°
2026-05-04 08:51 -6.09529 106.51908 2915 ft 245 kts 295°
2026-05-04 08:52 -6.08809 106.50297 3314 ft 265 kts 294°
2026-05-04 08:52 -6.07925 106.48587 3475 ft 287 kts 309°
2026-05-04 08:52 -6.06343 106.47279 3668 ft 306 kts 329°
2026-05-04 08:52 -6.04453 106.46137 4066 ft 324 kts 329°
2026-05-04 08:53 -6.02500 106.44950 4766 ft 331 kts 329°
2026-05-04 08:54 -5.88230 106.36082 9892 ft 359 kts 329°
2026-05-04 08:55 -5.86116 106.34759 10055 ft 359 kts 329°
2026-05-04 08:55 -5.83988 106.33427 10120 ft 364 kts 329°
2026-05-04 08:55 -5.81784 106.32046 10347 ft 381 kts 329°
2026-05-04 08:55 -5.79506 106.30619 10792 ft 390 kts 329°
2026-05-04 08:57 -5.62467 106.20635 14875 ft 418 kts 332°
2026-05-04 09:01 -5.25164 105.99591 21215 ft 461 kts 332°
2026-05-04 09:01 -5.22357 105.98005 21643 ft 463 kts 332°
2026-05-04 09:01 -5.19549 105.96419 22040 ft 465 kts 332°
2026-05-04 09:01 -5.16718 105.94820 22432 ft 467 kts 332°
2026-05-04 09:02 -5.13907 105.93234 22797 ft 470 kts 332°
2026-05-04 09:02 -5.11055 105.91622 23158 ft 473 kts 332°
2026-05-04 09:02 -5.08171 105.89983 23257 ft 481 kts 332°
2026-05-04 09:02 -5.05235 105.88310 23384 ft 488 kts 332°
2026-05-04 09:03 -5.02271 105.86619 23611 ft 491 kts 332°
2026-05-04 09:03 -4.99315 105.84931 23921 ft 492 kts 332°
2026-05-04 09:03 -4.96340 105.83233 24242 ft 492 kts 332°
2026-05-04 09:03 -4.93349 105.81527 24524 ft 494 kts 332°
2026-05-04 09:04 -4.90359 105.79822 24765 ft 496 kts 332°
2026-05-04 09:04 -4.87350 105.78108 24996 ft 498 kts 332°
2026-05-04 09:04 -4.85355 105.76971 25156 ft 500 kts 332°
2026-05-04 09:04 -4.81291 105.74657 25485 ft 502 kts 332°
2026-05-04 09:05 -4.79282 105.73512 25650 ft 503 kts 332°
2026-05-04 09:05 -4.76236 105.71777 25889 ft 505 kts 332°
2026-05-04 09:05 -4.73173 105.70033 26080 ft 507 kts 332°
2026-05-04 09:05 -4.69099 105.67714 26360 ft 509 kts 332°
2026-05-04 09:06 -4.67010 105.66524 26505 ft 510 kts 332°
2026-05-04 09:07 -4.45253 105.54141 27763 ft 519 kts 332°
2026-05-04 09:08 -4.42111 105.52353 27941 ft 519 kts 332°
2026-05-04 09:08 -4.38969 105.50566 28181 ft 518 kts 332°
2026-05-04 09:08 -4.35841 105.48787 28440 ft 517 kts 332°
2026-05-04 09:08 -4.32711 105.47006 28705 ft 516 kts 332°
2026-05-04 09:09 -4.29589 105.45231 28935 ft 515 kts 332°
2026-05-04 09:09 -4.26511 105.43480 29150 ft 515 kts 332°
2026-05-04 09:09 -4.23395 105.41709 29403 ft 515 kts 332°
2026-05-04 09:09 -4.20282 105.39939 29642 ft 514 kts 332°
2026-05-04 09:10 -4.17175 105.38172 29887 ft 513 kts 332°
2026-05-04 09:10 -4.14069 105.36407 30096 ft 513 kts 332°
2026-05-04 09:10 -4.10968 105.34644 30288 ft 512 kts 331°
2026-05-04 09:10 -4.07865 105.32880 30474 ft 512 kts 331°
2026-05-04 09:11 -4.04767 105.31119 30688 ft 512 kts 331°
2026-05-04 09:11 -4.01672 105.29360 30846 ft 512 kts 332°
2026-05-04 09:11 -3.98579 105.27603 31057 ft 511 kts 331°
2026-05-04 09:11 -3.95488 105.25846 31315 ft 509 kts 331°
2026-05-04 09:12 -3.92402 105.24093 31526 ft 509 kts 331°
2026-05-04 09:12 -3.89322 105.22348 31696 ft 509 kts 331°
2026-05-04 09:14 -3.67701 105.10191 32034 ft 507 kts 332°
2026-05-04 09:14 -3.61551 105.06730 32027 ft 507 kts 332°
2026-05-04 09:15 -3.55391 105.03264 32026 ft 509 kts 332°
2026-05-04 09:15 -3.49305 104.99841 32028 ft 510 kts 332°
2026-05-04 09:17 -3.21441 104.84174 32036 ft 508 kts 332°
2026-05-04 09:18 -3.18373 104.82449 31913 ft 502 kts 332°
2026-05-04 09:18 -3.15371 104.80761 31873 ft 502 kts 332°
2026-05-04 09:18 -3.09225 104.77308 31832 ft 510 kts 332°
2026-05-04 09:19 -3.03019 104.73821 31833 ft 512 kts 332°
2026-05-04 09:19 -2.96790 104.70320 31828 ft 513 kts 332°
2026-05-04 09:20 -2.90566 104.66823 31828 ft 513 kts 332°
2026-05-04 09:20 -2.84014 104.64154 31827 ft 508 kts 351°
2026-05-04 09:21 -2.77036 104.63253 31816 ft 505 kts 352°
2026-05-04 09:21 -2.70145 104.62050 31811 ft 507 kts 350°
2026-05-04 09:22 -2.63215 104.60694 31812 ft 507 kts 350°
2026-05-04 09:22 -2.56264 104.59342 31809 ft 508 kts 350°
2026-05-04 09:23 -2.49302 104.58017 31817 ft 509 kts 350°
2026-05-04 09:23 -2.42337 104.56705 31815 ft 510 kts 350°
2026-05-04 09:25 -2.14475 104.51451 31816 ft 510 kts 350°
2026-05-04 09:26 -2.07511 104.50137 31816 ft 509 kts 350°
2026-05-04 09:26 -2.00551 104.48824 31820 ft 509 kts 350°
2026-05-04 09:27 -1.93605 104.47514 31820 ft 508 kts 350°
2026-05-04 09:27 -1.86655 104.46203 31817 ft 508 kts 350°
2026-05-04 09:28 -1.79744 104.44899 31819 ft 508 kts 350°
2026-05-04 09:28 -1.72802 104.43590 31819 ft 507 kts 350°
2026-05-04 09:29 -1.65863 104.42282 31818 ft 507 kts 350°
2026-05-04 09:29 -1.58922 104.40973 31821 ft 507 kts 350°
2026-05-04 09:30 -1.51990 104.39667 31819 ft 507 kts 350°
2026-05-04 09:30 -1.45051 104.38359 31817 ft 507 kts 350°
2026-05-04 09:31 -1.38105 104.37049 31825 ft 508 kts 350°
2026-05-04 09:31 -1.31138 104.35736 31821 ft 509 kts 350°
2026-05-04 09:32 -1.24165 104.34422 31821 ft 510 kts 350°
2026-05-04 09:34 -0.96284 104.29167 31822 ft 510 kts 350°
2026-05-04 09:34 -0.89304 104.27851 31822 ft 510 kts 350°
2026-05-04 09:35 -0.82361 104.26543 31822 ft 510 kts 350°
2026-05-04 09:35 -0.75389 104.25229 31822 ft 510 kts 350°
2026-05-04 09:37 -0.51397 104.20677 29323 ft 496 kts 350°
2026-05-04 09:37 -0.48020 104.20002 28694 ft 493 kts 350°
2026-05-04 09:38 -0.44672 104.19328 28167 ft 488 kts 350°
2026-05-04 09:38 -0.41360 104.18663 27675 ft 483 kts 350°
2026-05-04 09:38 -0.38076 104.18005 27169 ft 479 kts 350°
2026-05-04 09:38 -0.34821 104.17355 26635 ft 476 kts 350°
2026-05-04 09:39 -0.31583 104.16711 26086 ft 473 kts 350°
2026-05-04 09:39 -0.28365 104.16071 25592 ft 470 kts 350°
2026-05-04 09:39 -0.25169 104.15436 25109 ft 466 kts 350°
2026-05-04 09:39 -0.22003 104.14806 24656 ft 462 kts 350°
2026-05-04 09:40 -0.18858 104.14181 24198 ft 459 kts 350°
2026-05-04 09:40 -0.15735 104.13560 23744 ft 456 kts 350°
2026-05-04 09:40 -0.12637 104.12944 23261 ft 453 kts 350°
2026-05-04 09:40 -0.09554 104.12331 22738 ft 450 kts 350°
2026-05-04 09:41 -0.07518 104.11926 22417 ft 447 kts 350°
2026-05-04 09:42 0.13714 104.07704 19118 ft 424 kts 350°
2026-05-04 09:43 0.16600 104.07130 18696 ft 422 kts 350°
2026-05-04 09:43 0.19469 104.06559 18260 ft 419 kts 350°
2026-05-04 09:43 0.22316 104.05993 17793 ft 416 kts 350°
2026-05-04 09:43 0.25147 104.05430 17325 ft 413 kts 350°
2026-05-04 09:44 0.27955 104.04871 16865 ft 410 kts 350°
2026-05-04 09:44 0.30743 104.04319 16432 ft 407 kts 350°
2026-05-04 09:44 0.33512 104.03772 16010 ft 404 kts 350°
2026-05-04 09:46 0.52721 103.99977 15512 ft 400 kts 350°
2026-05-04 09:46 0.55424 103.99443 15106 ft 397 kts 350°
2026-05-04 09:46 0.58134 103.98907 14665 ft 395 kts 350°
2026-05-04 09:47 0.60826 103.98375 14222 ft 393 kts 350°
2026-05-04 09:47 0.63508 103.97844 13801 ft 391 kts 350°
2026-05-04 09:49 0.81667 103.94092 10857 ft 372 kts 348°
2026-05-04 09:49 0.84184 103.93543 10461 ft 369 kts 348°
2026-05-04 09:49 0.86683 103.93000 10078 ft 366 kts 348°
2026-05-04 09:51 1.01073 103.89923 7127 ft 336 kts 347°
2026-05-04 09:51 1.03280 103.89454 6928 ft 315 kts 347°
2026-05-04 09:51 1.05401 103.89003 6224 ft 312 kts 347°
2026-05-04 09:51 1.07557 103.88565 5182 ft 320 kts 352°
2026-05-04 09:52 1.09734 103.88730 4750 ft 308 kts 15°
2026-05-04 09:52 1.11704 103.89444 4327 ft 296 kts 23°
2026-05-04 09:52 1.13532 103.90269 3940 ft 283 kts 23°
2026-05-04 09:52 1.15297 103.91045 3587 ft 271 kts 22°
2026-05-04 09:53 1.16993 103.91765 3252 ft 259 kts 22°
2026-05-04 09:53 1.18626 103.92455 2934 ft 253 kts 22°
2026-05-04 09:53 1.20265 103.93149 2646 ft 259 kts 22°
2026-05-04 09:53 1.21939 103.93859 2310 ft 263 kts 22°
2026-05-04 09:54 1.23619 103.94571 1942 ft 261 kts 22°
2026-05-04 09:54 1.25278 103.95275 1613 ft 259 kts 22°
2026-05-04 09:54 1.26938 103.95978 1256 ft 258 kts 22°
2026-05-04 09:54 1.28590 103.96679 941 ft 257 kts 22°
2026-05-04 09:55 1.30211 103.97366 624 ft 251 kts 22°
2026-05-04 09:55 1.31755 103.98020 353 ft 229 kts 22°
2026-05-04 09:55 1.33151 103.98612 65 ft 208 kts 22°
2026-05-04 09:55 1.34321 103.99106 35 ft 124 kts 23°
2026-05-04 09:56 1.34663 103.99237 33 ft 20 kts 13°
2026-05-04 09:56 1.34740 103.99244 34 ft 13 kts 359°
2026-05-04 09:56 1.34839 103.99243 33 ft 14 kts 359°